ATLAS 5 CENTAUR DEB, 44668

Orbit data source: Space-Track

ATLAS 5 CENTAUR DEB, 44668 is space debris in HEO originally from a launch on Wed, 17 Oct 2018 UTC launched from the Air Force Eastern Test Range (AFETR). Debris objects in space refer to the collection of defunct objects orbiting the Earth. Examples of debris include non-operational satellites, rocket bodies, and fragments generated from explosions, collisions, or faulty payload assembly.

Loading next visibility...
Identifier
44668, 2018-079AE
Orbit
HEO
Country
Flag of USUS
Related business
Flag of USUnited Launch Alliance/Lockheed Martin (US)
Manufacturer
ULA Decatur
Mission
Spacecraft
Bus & Motor
Unknown
Mass
Unknown
Launch date (UTC)
2018-10-17 (8 years ago)
Launch vehicle
Unknown
Launch site
Air Force Eastern Test Range (AFETR)
Object type
Payload
Rocket body
Debris
Shape & HBR
Unknown shape, 1.1 m
Radar Cross Section
Medium (>0.1 m² and <1 m²)

Expand to show TLE details & history
Last TLE update: 3 days ago

TLE from 3 days ago
0 ATLAS 5 CENTAUR DEB
1 44668U 18079AE  26197.26336481 -.00000121  00000-0  00000+0 0  9995
2 44668  13.4726 355.8452 4559887  37.8488 346.8276  1.97458182 51400
Epoch: 2026-07-16T06:19Z
TLE epoch observation values (Epoch: 2026-07-16T06:19:14.719Z)
Latitude
0.00001°
Longitude
-33.039°
Altitude
9,280.258 km
Speed
6.005 km/s
True Right ascension
23h 43m 31s
True Declination
0° 00' 00"
Sunlit
Object was in daylight at epoch
Visualization orbit readout
Latitude
Unknown
Longitude
Unknown
Altitude
Unknown
Speed
Unknown
Apparent Right ascension
Unknown
Apparent Declination
Unknown
Sunlit
N/A
Visualization observer readout
Local Sidereal Time
19:14:10
Azimuth
Unknown
Elevation
Unknown
Doppler factor
Unknown
Orbital elements
Apogee altitude
32,700.97 km
Perigee altitude
8,223.264 km
Semi-major axis
26,840.254 km
Eccentricity
0.45599
Inclination
13.4726°
RAAN
355.8452°
Arg. of periapsis
37.8488°
True anomaly
322.17801°
Mean anomaly
346.8276°
Eccentric anomaly
336.34502°
Mean motion
0.49359 °/min
Orbital period
729.36 mins
BSTAR
0
Loading maneuver chart data...
Computing Atmospheric mass density...

Documentation

Showing up to 5 results
|